Alma, MI

4:49 AM EST on February 24, 2017 (GMT -0500)
Gratiot Community

Weather History for KAMN - March, 2014

Change the Weather History Date:

Tuesday, March 25, 2014

  Actual Average Record
Temperature  
Mean Temperature 21 °F -  
Max Temperature 28 °F 45 °F 72 °F (1987)
Min Temperature 14 °F 24 °F 2 °F (1974)
Degree Days  
Heating Degree Days 44    
Moisture  
Dew Point 13 °F    
Average Humidity 65    
Maximum Humidity 89    
Minimum Humidity 41    
Precipitation  
Precipitation 0.00 in - - ()
Sea Level Pressure  
Sea Level Pressure 29.98 in    
Wind  
Wind Speed 9 mph (West)    
Max Wind Speed 20 mph    
Max Gust Speed 28 mph    
Visibility 9 miles    
Events Snow    
Averages and records for this station are not official NWS values.
T = Trace of Precipitation, MM = Missing Value Source: NWS Daily Summary

Daily Weather History Graph

Daily Weather History Graph

Search for Another Location

Airport or City:

Trip Planner

Search our weather history database for the weather conditions in past years. The results will help you decide how hot, cold, wet, or windy it might be!

Date:

Astronomy

Mar. 25, 2014 Rise Set
Actual Time 7:33 AM EDT 7:57 PM EDT
Civil Twilight 7:04 AM EDT 8:25 PM EDT
Nautical Twilight 6:30 AM EDT 8:59 PM EDT
Astronomical Twilight 5:56 AM EDT 9:34 PM EDT
Moon 4:02 AM EDT (3/25) 2:18 PM EDT (3/25)
Length of Visible Light 13h 21m
Length of Day
12h 24m
Waning Crescent, 32% of the Moon is Illuminated
Mar 25
Waning Crescent
Mar 30
New
Apr 7
First Quarter
Apr 15
Full
Apr 22
Last Quarter

Hourly Weather History & Observations

Time (EDT) Temp. Windchill Dew Point Humidity Pressure Visibility Wind Dir Wind Speed Gust Speed Precip Events Conditions
12:14 AM 22.1 °F 15.9 °F 13.3 °F 69% 30.03 in 10.0 mi South 4.6 mph - N/A   Overcast
12:34 AM 22.5 °F 15.1 °F 13.5 °F 68% 30.02 in 10.0 mi South 5.8 mph - N/A   Overcast
12:53 AM 22.8 °F 14.5 °F 14.0 °F 69% 30.01 in 10.0 mi South 6.9 mph - N/A   Overcast
1:14 AM 22.6 °F 14.3 °F 13.6 °F 68% 30.00 in 10.0 mi South 6.9 mph - N/A   Overcast
1:34 AM 22.6 °F 14.3 °F 13.5 °F 68% 29.98 in 10.0 mi South 6.9 mph - N/A   Mostly Cloudy
1:54 AM 22.1 °F 12.8 °F 12.9 °F 68% 29.97 in 10.0 mi South 8.1 mph - N/A   Scattered Clouds
2:14 AM 22.1 °F 12.8 °F 11.8 °F 65% 29.96 in 10.0 mi SSW 8.1 mph - N/A   Scattered Clouds
2:34 AM 23.0 °F 13.1 °F 11.7 °F 62% 29.94 in 10.0 mi SSW 9.2 mph - N/A   Mostly Cloudy
2:54 AM 23.0 °F 13.1 °F 10.9 °F 60% 29.93 in 10.0 mi SSW 9.2 mph 17.3 mph N/A   Mostly Cloudy
3:14 AM 23.0 °F 12.4 °F 10.6 °F 59% 29.92 in 10.0 mi SSW 10.4 mph - N/A   Scattered Clouds
3:34 AM 23.5 °F 12.4 °F 10.4 °F 57% 29.91 in 10.0 mi SSW 11.5 mph - N/A   Clear
3:54 AM 23.9 °F 14.2 °F 11.3 °F 59% 29.91 in 7.0 mi SW 9.2 mph - N/A Snow Light Snow
4:14 AM 23.7 °F 14.7 °F 14.0 °F 66% 29.91 in 10.0 mi SW 8.1 mph - N/A   Mostly Cloudy
4:34 AM 23.4 °F 12.8 °F 18.0 °F 80% 29.90 in 5.0 mi WSW 10.4 mph - N/A Snow Light Snow
4:55 AM 23.4 °F 14.3 °F 19.4 °F 85% 29.89 in 7.0 mi SSW 8.1 mph - N/A Snow Light Snow
5:15 AM 23.5 °F 15.4 °F 20.3 °F 87% 29.89 in 5.0 mi SW 6.9 mph - N/A   Mostly Cloudy
5:35 AM 23.5 °F 14.5 °F 20.8 °F 89% 29.89 in 5.0 mi SW 8.1 mph - N/A   Overcast
5:55 AM 23.9 °F 15.0 °F 21.2 °F 89% 29.89 in 7.0 mi SW 8.1 mph - N/A   Overcast
6:15 AM 24.1 °F 16.0 °F 21.4 °F 89% 29.89 in 5.0 mi WSW 6.9 mph - N/A Snow Light Snow
6:35 AM 24.3 °F 16.3 °F 21.6 °F 89% 29.89 in 5.0 mi WSW 6.9 mph - N/A Snow Light Snow
6:50 AM 24.1 °F 13.7 °F 21.4 °F 89% 29.89 in 5.0 mi West 10.4 mph - N/A Snow Light Snow
7:10 AM 24.1 °F 15.2 °F 21.2 °F 89% 29.90 in 7.0 mi West 8.1 mph - N/A   Overcast
7:30 AM 23.5 °F 13.7 °F 19.2 °F 84% 29.90 in 10.0 mi West 9.2 mph - N/A   Mostly Cloudy
7:51 AM 22.6 °F 14.3 °F 18.3 °F 83% 29.91 in 10.0 mi West 6.9 mph - N/A   Clear
8:11 AM 22.1 °F 14.7 °F 18.3 °F 85% 29.91 in 10.0 mi West 5.8 mph - N/A   Clear
8:31 AM 23.5 °F 16.4 °F 19.0 °F 83% 29.91 in 10.0 mi West 5.8 mph - N/A   Clear
8:51 AM 23.9 °F 13.5 °F 19.2 °F 82% 29.91 in 10.0 mi West 10.4 mph - N/A   Clear
9:11 AM 24.8 °F 15.3 °F 18.9 °F 78% 29.91 in 10.0 mi West 9.2 mph 16.1 mph N/A   Clear
9:31 AM 25.3 °F 14.1 °F 18.9 °F 76% 29.92 in 10.0 mi West 12.7 mph 16.1 mph N/A   Scattered Clouds
9:51 AM 25.7 °F 16.4 °F 17.8 °F 72% 29.92 in 10.0 mi NW 9.2 mph - N/A   Mostly Cloudy
10:11 AM 25.5 °F 15.5 °F 17.4 °F 71% 29.92 in 10.0 mi WNW 10.4 mph - N/A   Mostly Cloudy
10:31 AM 25.3 °F 16.0 °F 16.5 °F 69% 29.93 in 10.0 mi NW 9.2 mph - N/A   Scattered Clouds
10:51 AM 25.9 °F 18.2 °F 13.1 °F 58% 29.94 in 10.0 mi WNW 6.9 mph - N/A   Scattered Clouds
11:11 AM 26.6 °F 21.2 °F 11.3 °F 53% 29.93 in 10.0 mi West 4.6 mph - N/A   Scattered Clouds
11:32 AM 28.2 °F 19.5 °F 10.0 °F 47% 29.94 in 10.0 mi West 9.2 mph - N/A   Mostly Cloudy
11:52 AM 28.6 °F 18.7 °F 9.9 °F 46% 29.94 in 10.0 mi WNW 11.5 mph - N/A   Overcast
12:12 PM 27.3 °F 16.6 °F 13.5 °F 56% 29.94 in 10.0 mi West 12.7 mph 18.4 mph N/A   Overcast
12:32 PM 27.0 °F 18.0 °F 18.3 °F 70% 29.94 in 2.5 mi West 9.2 mph 18.4 mph N/A Snow Light Snow
12:52 PM 24.8 °F 11.5 °F 17.6 °F 74% 29.95 in 2.0 mi West 17.3 mph 21.9 mph N/A Snow Light Snow
1:12 PM 23.9 °F 15.0 °F 19.4 °F 83% 29.96 in 2.5 mi West 8.1 mph - N/A Snow Light Snow
1:32 PM 25.2 °F 15.7 °F 16.3 °F 69% 29.96 in 10.0 mi WNW 9.2 mph - N/A   Overcast
1:52 PM 28.4 °F 15.8 °F 11.1 °F 48% 29.96 in 10.0 mi West 18.4 mph 26.5 mph N/A   Scattered Clouds
2:12 PM 28.6 °F 17.2 °F 9.7 °F 45% 29.96 in 10.0 mi WNW 15.0 mph 24.2 mph N/A   Scattered Clouds
2:32 PM 26.8 °F 14.5 °F 5.9 °F 41% 29.96 in 10.0 mi WNW 16.1 mph 21.9 mph N/A   Mostly Cloudy
2:53 PM 25.9 °F 12.1 °F 11.1 °F 54% 29.97 in 10.0 mi NW 19.6 mph 24.2 mph N/A   Mostly Cloudy
3:13 PM 27.7 °F 16.1 °F 6.4 °F 41% 29.96 in 10.0 mi WNW 15.0 mph 24.2 mph N/A   Scattered Clouds
3:33 PM 26.2 °F 15.2 °F 10.0 °F 50% 29.97 in 10.0 mi NW 12.7 mph 25.3 mph N/A   Scattered Clouds
3:53 PM 26.1 °F 14.5 °F 7.9 °F 46% 29.98 in 10.0 mi WNW 13.8 mph 27.6 mph N/A   Overcast
4:13 PM 24.8 °F 14.6 °F 10.8 °F 55% 29.98 in 7.0 mi NW 10.4 mph - N/A Snow Light Snow
4:33 PM 26.6 °F 13.4 °F 12.9 °F 56% 29.99 in 10.0 mi NNW 18.4 mph 21.9 mph N/A   Overcast
4:53 PM 24.8 °F 13.4 °F 10.6 °F 55% 29.99 in 10.0 mi NW 12.7 mph 17.3 mph N/A   Overcast
5:13 PM 23.5 °F 12.4 °F 11.1 °F 59% 30.00 in 10.0 mi NNW 11.5 mph - N/A   Overcast
5:33 PM 24.6 °F 12.7 °F 9.9 °F 54% 30.01 in 10.0 mi WNW 13.8 mph 21.9 mph N/A   Overcast
5:53 PM 22.5 °F 11.7 °F 12.2 °F 65% 30.01 in 7.0 mi NNW 10.4 mph - N/A Snow Light Snow
6:13 PM 23.0 °F 11.7 °F 10.6 °F 59% 30.02 in 10.0 mi NNW 11.5 mph 16.1 mph N/A   Overcast
6:34 PM 23.9 °F 10.3 °F 8.2 °F 51% 30.04 in 10.0 mi NNW 17.3 mph 20.7 mph N/A   Overcast
6:54 PM 22.5 °F 8.5 °F 8.6 °F 55% 30.04 in 10.0 mi NW 17.3 mph 21.9 mph N/A   Overcast
7:14 PM 21.9 °F 9.8 °F 5.2 °F 49% 30.06 in 10.0 mi WNW 12.7 mph 21.9 mph N/A   Mostly Cloudy
7:34 PM 20.7 °F 7.6 °F 6.3 °F 54% 30.06 in 10.0 mi NNW 13.8 mph - N/A   Mostly Cloudy
7:54 PM 19.4 °F 7.2 °F 7.9 °F 61% 30.08 in 10.0 mi NNW 11.5 mph - N/A   Mostly Cloudy
8:14 PM 18.9 °F 8.8 °F 7.5 °F 61% 30.08 in 10.0 mi NW 8.1 mph - N/A   Scattered Clouds
8:34 PM 19.0 °F 5.6 °F 3.9 °F 52% 30.10 in 10.0 mi WNW 13.8 mph 18.4 mph N/A   Scattered Clouds
8:54 PM 18.5 °F 5.5 °F 3.0 °F 51% 30.11 in 10.0 mi NW 12.7 mph 18.4 mph N/A   Scattered Clouds
9:14 PM 18.5 °F 6.8 °F 3.2 °F 51% 30.12 in 10.0 mi NW 10.4 mph - N/A   Clear
9:34 PM 17.6 °F 7.3 °F 4.5 °F 56% 30.13 in 10.0 mi NW 8.1 mph - N/A   Scattered Clouds
9:54 PM 17.2 °F 6.0 °F 4.6 °F 58% 30.14 in 10.0 mi NW 9.2 mph - N/A   Scattered Clouds
10:15 PM 16.7 °F 8.3 °F 5.0 °F 60% 30.14 in 10.0 mi NW 5.8 mph - N/A   Clear
10:35 PM 16.0 °F 7.4 °F 5.4 °F 63% 30.15 in 10.0 mi NW 5.8 mph - N/A   Clear
10:55 PM 15.3 °F 7.9 °F 5.9 °F 67% 30.16 in 10.0 mi WNW 4.6 mph - N/A   Clear
11:15 PM 14.5 °F 8.8 °F 7.2 °F 73% 30.16 in 10.0 mi West 3.5 mph - N/A   Clear
11:35 PM 14.4 °F - 6.6 °F 71% 30.16 in 10.0 mi Calm Calm - N/A   Clear
11:55 PM 14.5 °F - 7.3 °F 73% 30.17 in 10.0 mi Calm Calm - N/A   Clear